Time,TemperatureF,DewpointF,PressureIn,WindDirection,WindDirectionDegrees,WindSpeedMPH,WindSpeedGustMPH,Humidity,HourlyPrecipIn,Conditions,Clouds,dailyrainin,SoftwareType,DateUTC
2013-01-28 03:52:00,30.4,22.5,29.88,North,-999,0.0,0.0,72,0.00,,,-99.99,FreeWX 2.04,2013-01-28 08:52:00,
2013-01-28 03:58:00,30.6,22.6,29.88,North,-999,0.0,0.0,72,0.00,,,-99.99,FreeWX 2.04,2013-01-28 08:58:00,
2013-01-28 04:03:00,30.6,22.6,29.88,North,-999,0.0,3.1,72,0.00,,,-99.99,FreeWX 2.04,2013-01-28 09:03:00,
2013-01-28 04:08:00,30.6,22.6,29.88,North,-999,0.0,3.1,72,0.00,,,-99.99,FreeWX 2.04,2013-01-28 09:08:00,
2013-01-28 04:13:00,30.6,22.6,29.88,North,-999,0.0,3.6,72,0.00,,,-99.99,FreeWX 2.04,2013-01-28 09:13:00,
2013-01-28 04:18:00,30.6,22.6,29.88,North,-999,0.0,3.6,72,0.00,,,-99.99,FreeWX 2.04,2013-01-28 09:18:00,
2013-01-28 04:23:00,30.6,22.6,29.88,North,-999,0.0,5.4,72,0.00,,,-99.99,FreeWX 2.04,2013-01-28 09:23:00,
2013-01-28 04:28:00,30.6,22.6,29.88,North,-999,0.0,3.1,72,0.00,,,-99.99,FreeWX 2.04,2013-01-28 09:28:00,
2013-01-28 04:33:00,30.6,22.6,29.85,North,-999,0.0,0.0,72,0.00,,,-99.99,FreeWX 2.04,2013-01-28 09:33:00,
2013-01-28 04:38:00,30.6,22.6,29.85,North,-999,0.0,3.1,72,0.00,,,-99.99,FreeWX 2.04,2013-01-28 09:38:00,
2013-01-28 04:43:00,30.6,22.6,29.85,North,-999,0.0,4.9,72,0.00,,,-99.99,FreeWX 2.04,2013-01-28 09:43:00,
2013-01-28 04:48:00,30.6,23.0,29.85,South,178,1.0,5.8,73,0.00,,,-99.99,FreeWX 2.04,2013-01-28 09:48:00,
2013-01-28 04:53:00,30.6,23.0,29.85,North,-999,0.0,0.0,73,0.00,,,-99.99,FreeWX 2.04,2013-01-28 09:53:00,
2013-01-28 04:58:00,30.6,23.0,29.85,North,-999,0.0,0.0,73,0.00,,,-99.99,FreeWX 2.04,2013-01-28 09:58:00,
2013-01-28 07:41:00,31.8,24.4,29.76,North,-999,0.0,0.0,74,0.00,,,-99.99,FreeWX 2.04,2013-01-28 12:41:00,
2013-01-28 07:46:00,31.8,24.4,29.76,North,-999,0.0,0.0,74,0.00,,,-99.99,FreeWX 2.04,2013-01-28 12:46:00,
2013-01-28 07:51:00,31.8,24.4,29.76,North,-999,0.0,0.0,74,0.00,,,-99.99,FreeWX 2.04,2013-01-28 12:51:00,
2013-01-28 07:56:00,31.8,24.4,29.76,North,-999,0.0,0.0,74,0.00,,,-99.99,FreeWX 2.04,2013-01-28 12:56:00,
2013-01-28 08:01:00,31.8,24.4,29.76,North,-999,0.0,0.0,74,0.00,,,-99.99,FreeWX 2.04,2013-01-28 13:01:00,
2013-01-28 08:06:00,32.0,24.6,29.76,North,-999,0.0,0.0,74,0.00,,,-99.99,FreeWX 2.04,2013-01-28 13:06:00,
2013-01-28 08:11:00,32.0,24.6,29.76,North,-999,0.0,0.0,74,0.00,,,-99.99,FreeWX 2.04,2013-01-28 13:11:00,
2013-01-28 08:16:00,32.0,24.6,29.76,North,-999,0.0,3.1,74,0.00,,,-99.99,FreeWX 2.04,2013-01-28 13:16:00,
2013-01-28 08:21:00,32.0,24.6,29.76,North,-999,0.0,0.0,74,0.00,,,-99.99,FreeWX 2.04,2013-01-28 13:21:00,
2013-01-28 08:26:00,32.0,24.6,29.76,North,-999,0.0,0.0,74,0.00,,,-99.99,FreeWX 2.04,2013-01-28 13:26:00,
2013-01-28 08:31:00,32.0,24.6,29.76,North,-999,0.0,0.0,74,0.00,,,-99.99,FreeWX 2.04,2013-01-28 13:31:00,
2013-01-28 08:36:00,32.2,24.8,29.76,North,-999,0.0,0.0,74,0.00,,,-99.99,FreeWX 2.04,2013-01-28 13:36:00,
2013-01-28 08:41:00,32.2,24.8,29.76,North,-999,0.0,0.0,74,0.00,,,-99.99,FreeWX 2.04,2013-01-28 13:41:00,
2013-01-28 08:46:00,32.2,24.8,29.76,North,-999,0.0,0.0,74,0.00,,,-99.99,FreeWX 2.04,2013-01-28 13:46:00,
2013-01-28 08:51:00,32.2,24.8,29.76,North,-999,0.0,0.0,74,0.00,,,-99.99,FreeWX 2.04,2013-01-28 13:51:00,
2013-01-28 08:56:00,32.2,24.8,29.76,North,-999,0.0,0.0,74,0.00,,,-99.99,FreeWX 2.04,2013-01-28 13:56:00,
2013-01-28 09:01:00,32.2,24.8,29.76,North,-999,0.0,0.0,74,0.00,,,-99.99,FreeWX 2.04,2013-01-28 14:01:00,
2013-01-28 09:06:00,32.2,24.8,29.74,North,-999,0.0,0.0,74,0.00,,,-99.99,FreeWX 2.04,2013-01-28 14:06:00,
2013-01-28 09:11:00,32.2,24.8,29.74,North,-999,0.0,0.0,74,0.00,,,-99.99,FreeWX 2.04,2013-01-28 14:11:00,
2013-01-28 09:16:00,32.2,25.2,29.74,North,-999,0.0,0.0,75,0.00,,,-99.99,FreeWX 2.04,2013-01-28 14:16:00,
2013-01-28 09:21:00,32.4,25.0,29.76,North,-999,0.0,0.0,74,0.00,,,-99.99,FreeWX 2.04,2013-01-28 14:21:00,
2013-01-28 09:26:00,32.4,25.3,29.76,North,-999,0.0,0.0,75,0.00,,,-99.99,FreeWX 2.04,2013-01-28 14:26:00,
2013-01-28 09:31:00,32.5,25.5,29.76,North,-999,0.0,0.0,75,0.00,,,-99.99,FreeWX 2.04,2013-01-28 14:31:00,
2013-01-28 09:36:00,32.5,25.5,29.74,North,-999,0.0,0.0,75,0.00,,,-99.99,FreeWX 2.04,2013-01-28 14:36:00,
2013-01-28 09:41:00,32.5,25.5,29.74,North,-999,0.0,0.0,75,0.00,,,-99.99,FreeWX 2.04,2013-01-28 14:41:00,
2013-01-28 09:46:00,32.5,25.5,29.74,North,-999,0.0,0.0,75,0.00,,,-99.99,FreeWX 2.04,2013-01-28 14:46:00,
2013-01-28 09:51:00,32.5,25.5,29.74,North,-999,0.0,0.0,75,0.00,,,-99.99,FreeWX 2.04,2013-01-28 14:51:00,
2013-01-28 09:56:00,32.5,25.5,29.74,North,-999,0.0,0.0,75,0.00,,,-99.99,FreeWX 2.04,2013-01-28 14:56:00,
2013-01-28 10:01:00,32.5,25.5,29.74,North,-999,0.0,0.0,75,0.00,,,-99.99,FreeWX 2.04,2013-01-28 15:01:00,
2013-01-28 10:06:00,32.5,25.5,29.74,North,-999,0.0,0.0,75,0.00,,,-99.99,FreeWX 2.04,2013-01-28 15:06:00,
2013-01-28 10:11:00,32.5,25.5,29.74,North,-999,0.0,0.0,75,0.00,,,-99.99,FreeWX 2.04,2013-01-28 15:11:00,
2013-01-28 10:16:00,32.5,25.5,29.74,North,-999,0.0,0.0,75,0.00,,,-99.99,FreeWX 2.04,2013-01-28 15:16:00,
2013-01-28 10:21:00,32.5,25.5,29.74,North,-999,0.0,0.0,75,0.00,,,-99.99,FreeWX 2.04,2013-01-28 15:21:00,
2013-01-28 10:26:00,32.7,25.7,29.74,North,-999,0.0,0.0,75,0.00,,,-99.99,FreeWX 2.04,2013-01-28 15:26:00,
2013-01-28 10:31:00,32.7,25.7,29.74,North,-999,0.0,0.0,75,0.00,,,-99.99,FreeWX 2.04,2013-01-28 15:31:00,
2013-01-28 10:36:00,32.9,25.9,29.74,North,-999,0.0,0.0,75,0.00,,,-99.99,FreeWX 2.04,2013-01-28 15:36:00,
2013-01-28 10:41:00,32.9,25.9,29.74,North,-999,0.0,0.0,75,0.00,,,-99.99,FreeWX 2.04,2013-01-28 15:41:00,
2013-01-28 10:46:00,32.9,25.9,29.74,North,-999,0.0,0.0,75,0.00,,,-99.99,FreeWX 2.04,2013-01-28 15:46:00,
2013-01-28 10:51:00,33.1,26.1,29.74,North,-999,0.0,0.0,75,0.00,,,-99.99,FreeWX 2.04,2013-01-28 15:51:00,
2013-01-28 10:56:00,33.3,26.2,29.74,North,-999,0.0,0.0,75,0.00,,,-99.99,FreeWX 2.04,2013-01-28 15:56:00,
2013-01-28 11:01:00,33.3,26.2,29.74,North,-999,0.0,0.0,75,0.00,,,-99.99,FreeWX 2.04,2013-01-28 16:01:00,
2013-01-28 11:06:00,33.1,26.1,29.71,North,-999,0.0,0.0,75,0.00,,,-99.99,FreeWX 2.04,2013-01-28 16:06:00,
2013-01-28 11:11:00,33.1,26.1,29.71,North,-999,0.0,0.0,75,0.00,,,-99.99,FreeWX 2.04,2013-01-28 16:11:00,
2013-01-28 11:16:00,33.1,26.1,29.71,North,-999,0.0,0.0,75,0.00,,,-99.99,FreeWX 2.04,2013-01-28 16:16:00,
2013-01-28 11:21:00,33.3,26.2,29.74,North,-999,0.0,0.0,75,0.00,,,-99.99,FreeWX 2.04,2013-01-28 16:21:00,
2013-01-28 11:26:00,33.3,26.2,29.74,North,-999,0.0,0.0,75,0.00,,,-99.99,FreeWX 2.04,2013-01-28 16:26:00,
2013-01-28 11:31:00,33.3,26.2,29.74,North,-999,0.0,0.0,75,0.00,,,-99.99,FreeWX 2.04,2013-01-28 16:31:00,
2013-01-28 11:36:00,33.4,26.4,29.71,North,-999,0.0,0.0,75,0.00,,,-99.99,FreeWX 2.04,2013-01-28 16:36:00,
2013-01-28 11:41:00,33.6,27.0,29.71,North,-999,0.0,0.0,76,0.00,,,-99.99,FreeWX 2.04,2013-01-28 16:41:00,
2013-01-28 11:46:00,34.0,27.1,29.71,North,-999,0.0,0.0,76,0.00,,,-99.99,FreeWX 2.04,2013-01-28 16:46:00,
2013-01-28 11:51:00,34.3,27.5,29.71,North,-999,0.0,0.0,76,0.00,,,-99.99,FreeWX 2.04,2013-01-28 16:51:00,
2013-01-28 11:56:00,34.2,27.3,29.71,North,-999,0.0,0.0,76,0.00,,,-99.99,FreeWX 2.04,2013-01-28 16:56:00,
2013-01-28 12:01:00,34.2,27.3,29.71,North,-999,0.0,0.0,76,0.00,,,-99.99,FreeWX 2.04,2013-01-28 17:01:00,
2013-01-28 12:06:00,34.2,27.3,29.71,North,-999,0.0,0.0,76,0.00,,,-99.99,FreeWX 2.04,2013-01-28 17:06:00,
2013-01-28 12:11:00,34.5,27.7,29.71,North,-999,0.0,0.0,76,0.00,,,-99.99,FreeWX 2.04,2013-01-28 17:11:00,
2013-01-28 12:16:00,34.5,27.7,29.71,North,-999,0.0,0.0,76,0.00,,,-99.99,FreeWX 2.04,2013-01-28 17:16:00,
2013-01-28 12:22:00,35.4,28.9,29.71,North,-999,0.0,0.0,77,0.00,,,-99.99,FreeWX 2.04,2013-01-28 17:22:00,
2013-01-28 12:27:00,35.8,29.3,29.71,North,-999,0.0,0.0,77,0.00,,,-99.99,FreeWX 2.04,2013-01-28 17:27:00,
2013-01-28 12:32:00,36.1,30.0,29.71,North,-999,0.0,0.0,78,0.00,,,-99.99,FreeWX 2.04,2013-01-28 17:32:00,
2013-01-28 12:37:00,36.0,29.5,29.71,North,-999,0.0,0.0,77,0.00,,,-99.99,FreeWX 2.04,2013-01-28 17:37:00,
2013-01-28 12:42:00,35.6,29.1,29.71,North,-999,0.0,0.0,77,0.00,,,-99.99,FreeWX 2.04,2013-01-28 17:42:00,
2013-01-28 12:47:00,35.6,28.8,29.71,North,-999,0.0,0.0,76,0.00,,,-99.99,FreeWX 2.04,2013-01-28 17:47:00,
2013-01-28 12:52:00,35.4,28.6,29.71,North,-999,0.0,0.0,76,0.00,,,-99.99,FreeWX 2.04,2013-01-28 17:52:00,
2013-01-28 12:57:00,35.4,28.6,29.71,North,-999,0.0,0.0,76,0.00,,,-99.99,FreeWX 2.04,2013-01-28 17:57:00,
2013-01-28 13:02:00,35.4,28.2,29.71,North,-999,0.0,0.0,75,0.00,,,-99.99,FreeWX 2.04,2013-01-28 18:02:00,
2013-01-28 13:07:00,35.6,28.8,29.68,North,-999,0.0,3.1,76,0.00,,,-99.99,FreeWX 2.04,2013-01-28 18:07:00,
2013-01-28 13:12:00,35.6,28.8,29.68,North,-999,0.0,0.0,76,0.00,,,-99.99,FreeWX 2.04,2013-01-28 18:12:00,
2013-01-28 13:17:00,35.6,28.8,29.68,North,-999,0.0,0.0,76,0.00,,,-99.99,FreeWX 2.04,2013-01-28 18:17:00,
2013-01-28 13:22:00,35.6,28.8,29.71,North,-999,0.0,0.0,76,0.00,,,-99.99,FreeWX 2.04,2013-01-28 18:22:00,
2013-01-28 13:27:00,35.8,28.9,29.71,North,-999,0.0,0.0,76,0.00,,,-99.99,FreeWX 2.04,2013-01-28 18:27:00,
2013-01-28 13:32:00,36.0,29.1,29.71,North,-999,0.0,0.0,76,0.00,,,-99.99,FreeWX 2.04,2013-01-28 18:32:00,
2013-01-28 13:37:00,36.1,29.3,29.71,North,-999,0.0,0.0,76,0.00,,,-99.99,FreeWX 2.04,2013-01-28 18:37:00,
2013-01-28 13:42:00,36.0,29.1,29.71,North,-999,0.0,0.0,76,0.00,,,-99.99,FreeWX 2.04,2013-01-28 18:42:00,
2013-01-28 13:47:00,36.0,29.1,29.71,North,-999,0.0,0.0,76,0.00,,,-99.99,FreeWX 2.04,2013-01-28 18:47:00,
2013-01-28 13:52:00,35.8,28.9,29.71,North,-999,0.0,0.0,76,0.00,,,-99.99,FreeWX 2.04,2013-01-28 18:52:00,
2013-01-28 13:57:00,35.8,28.6,29.71,North,-999,0.0,3.6,75,0.00,,,-99.99,FreeWX 2.04,2013-01-28 18:57:00,
2013-01-28 14:02:00,36.1,29.3,29.71,North,-999,0.0,3.1,76,0.00,,,-99.99,FreeWX 2.04,2013-01-28 19:02:00,
2013-01-28 14:07:00,36.3,29.5,29.71,North,-999,0.0,0.0,76,0.00,,,-99.99,FreeWX 2.04,2013-01-28 19:07:00,
2013-01-28 14:12:00,36.3,29.5,29.71,North,-999,0.0,4.0,76,0.00,,,-99.99,FreeWX 2.04,2013-01-28 19:12:00,
2013-01-28 14:17:00,36.7,29.8,29.71,WSW,257,1.0,4.0,76,0.00,,,-99.99,FreeWX 2.04,2013-01-28 19:17:00,
2013-01-28 14:22:00,36.5,29.7,29.71,West,276,1.0,4.0,76,0.00,,,-99.99,FreeWX 2.04,2013-01-28 19:22:00,
2013-01-28 14:27:00,36.5,29.7,29.71,West,277,1.0,4.0,76,0.00,,,-99.99,FreeWX 2.04,2013-01-28 19:27:00,
2013-01-28 14:32:00,36.9,30.0,29.71,West,267,1.0,5.4,76,0.00,,,-99.99,FreeWX 2.04,2013-01-28 19:32:00,
2013-01-28 14:37:00,37.0,30.2,29.71,North,-999,0.0,2.7,76,0.00,,,-99.99,FreeWX 2.04,2013-01-28 19:37:00,
2013-01-28 14:42:00,36.9,30.0,29.71,North,-999,0.0,4.5,76,0.00,,,-99.99,FreeWX 2.04,2013-01-28 19:42:00,
2013-01-28 14:47:00,36.9,30.0,29.71,West,269,2.0,4.9,76,0.00,,,-99.99,FreeWX 2.04,2013-01-28 19:47:00,
2013-01-28 14:52:00,37.0,30.2,29.71,West,281,2.0,3.6,76,0.00,,,-99.99,FreeWX 2.04,2013-01-28 19:52:00,
2013-01-28 14:57:00,37.4,30.9,29.71,North,-999,0.0,3.1,77,0.00,,,-99.99,FreeWX 2.04,2013-01-28 19:57:00,
2013-01-28 15:02:00,37.4,30.9,29.71,North,-999,0.0,4.0,77,0.00,,,-99.99,FreeWX 2.04,2013-01-28 20:02:00,
2013-01-28 15:07:00,37.6,31.1,29.71,North,-999,0.0,3.6,77,0.00,,,-99.99,FreeWX 2.04,2013-01-28 20:07:00,
2013-01-28 15:12:00,37.4,30.9,29.71,WNW,294,1.0,5.4,77,0.00,,,-99.99,FreeWX 2.04,2013-01-28 20:12:00,
2013-01-28 15:17:00,37.6,31.1,29.71,West,281,1.0,4.9,77,0.00,,,-99.99,FreeWX 2.04,2013-01-28 20:17:00,
2013-01-28 15:22:00,37.6,30.7,29.71,North,-999,0.0,3.1,76,0.00,,,-99.99,FreeWX 2.04,2013-01-28 20:22:00,
2013-01-28 15:27:00,37.6,30.7,29.71,North,-999,0.0,5.4,76,0.00,,,-99.99,FreeWX 2.04,2013-01-28 20:27:00,
2013-01-28 15:32:00,37.4,30.2,29.71,NW,321,1.0,4.9,75,0.00,,,-99.99,FreeWX 2.04,2013-01-28 20:32:00,
2013-01-28 15:37:00,37.2,30.0,29.74,North,-999,0.0,3.1,75,0.00,,,-99.99,FreeWX 2.04,2013-01-28 20:37:00,
2013-01-28 15:42:00,37.0,29.5,29.74,North,-999,0.0,0.0,74,0.00,,,-99.99,FreeWX 2.04,2013-01-28 20:42:00,
2013-01-28 15:47:00,37.0,29.5,29.74,North,-999,0.0,4.0,74,0.00,,,-99.99,FreeWX 2.04,2013-01-28 20:47:00,
2013-01-28 15:52:00,37.0,29.5,29.74,North,-999,0.0,3.6,74,0.00,,,-99.99,FreeWX 2.04,2013-01-28 20:52:00,
2013-01-28 15:57:00,36.9,28.9,29.74,North,-999,0.0,0.0,73,0.00,,,-99.99,FreeWX 2.04,2013-01-28 20:57:00,
2013-01-28 16:02:00,36.7,28.6,29.74,North,-999,0.0,4.5,72,0.00,,,-99.99,FreeWX 2.04,2013-01-28 21:02:00,
2013-01-28 16:07:00,36.5,28.4,29.74,North,-999,0.0,3.6,72,0.00,,,-99.99,FreeWX 2.04,2013-01-28 21:07:00,
2013-01-28 16:12:00,36.3,28.2,29.74,North,-999,0.0,0.0,72,0.00,,,-99.99,FreeWX 2.04,2013-01-28 21:12:00,
2013-01-28 16:17:00,36.1,28.0,29.74,North,-999,0.0,0.0,72,0.00,,,-99.99,FreeWX 2.04,2013-01-28 21:17:00,
2013-01-28 16:22:00,36.0,27.9,29.76,North,-999,0.0,0.0,72,0.00,,,-99.99,FreeWX 2.04,2013-01-28 21:22:00,
2013-01-28 16:27:00,35.8,27.3,29.76,North,-999,0.0,0.0,71,0.00,,,-99.99,FreeWX 2.04,2013-01-28 21:27:00,
2013-01-28 16:32:00,35.8,27.3,29.76,North,-999,0.0,0.0,71,0.00,,,-99.99,FreeWX 2.04,2013-01-28 21:32:00,
2013-01-28 16:37:00,35.8,27.7,29.76,North,-999,0.0,0.0,72,0.00,,,-99.99,FreeWX 2.04,2013-01-28 21:37:00,
2013-01-28 16:42:00,35.6,27.5,29.76,North,-999,0.0,0.0,72,0.00,,,-99.99,FreeWX 2.04,2013-01-28 21:42:00,
2013-01-28 16:47:00,35.6,27.5,29.76,North,-999,0.0,0.0,72,0.00,,,-99.99,FreeWX 2.04,2013-01-28 21:47:00,
2013-01-28 16:52:00,35.4,27.0,29.76,North,-999,0.0,0.0,71,0.00,,,-99.99,FreeWX 2.04,2013-01-28 21:52:00,
2013-01-28 16:57:00,35.1,26.6,29.76,North,-999,0.0,3.6,71,0.00,,,-99.99,FreeWX 2.04,2013-01-28 21:57:00,
2013-01-28 17:02:00,34.9,26.4,29.76,North,-999,0.0,3.1,71,0.00,,,-99.99,FreeWX 2.04,2013-01-28 22:02:00,
2013-01-28 17:07:00,34.7,26.2,29.76,North,-999,0.0,0.0,71,0.00,,,-99.99,FreeWX 2.04,2013-01-28 22:07:00,
2013-01-28 17:12:00,34.5,26.1,29.76,North,-999,0.0,0.0,71,0.00,,,-99.99,FreeWX 2.04,2013-01-28 22:12:00,
2013-01-28 17:17:00,34.3,25.9,29.76,North,-999,0.0,0.0,71,0.00,,,-99.99,FreeWX 2.04,2013-01-28 22:17:00,
2013-01-28 17:22:00,34.3,25.9,29.79,North,-999,0.0,0.0,71,0.00,,,-99.99,FreeWX 2.04,2013-01-28 22:22:00,
2013-01-28 17:27:00,34.2,26.1,29.79,North,-999,0.0,0.0,72,0.00,,,-99.99,FreeWX 2.04,2013-01-28 22:27:00,
2013-01-28 17:32:00,34.0,25.9,29.79,North,-999,0.0,0.0,72,0.00,,,-99.99,FreeWX 2.04,2013-01-28 22:32:00,
2013-01-28 17:37:00,33.8,25.7,29.79,North,-999,0.0,0.0,72,0.00,,,-99.99,FreeWX 2.04,2013-01-28 22:37:00,
2013-01-28 17:42:00,33.8,25.7,29.79,North,-999,0.0,0.0,72,0.00,,,-99.99,FreeWX 2.04,2013-01-28 22:42:00,
2013-01-28 17:47:00,33.8,25.7,29.79,North,-999,0.0,4.5,72,0.00,,,-99.99,FreeWX 2.04,2013-01-28 22:47:00,
2013-01-28 17:52:00,33.6,25.5,29.79,North,-999,0.0,0.0,72,0.00,,,-99.99,FreeWX 2.04,2013-01-28 22:52:00,
2013-01-28 17:57:00,33.4,25.3,29.79,North,-999,0.0,0.0,72,0.00,,,-99.99,FreeWX 2.04,2013-01-28 22:57:00,
2013-01-28 18:02:00,33.4,25.3,29.79,North,-999,0.0,0.0,72,0.00,,,-99.99,FreeWX 2.04,2013-01-28 23:02:00,
2013-01-28 18:07:00,33.4,25.7,29.79,North,-999,0.0,4.0,73,0.00,,,-99.99,FreeWX 2.04,2013-01-28 23:07:00,
2013-01-28 18:12:00,33.3,25.5,29.79,North,-999,0.0,0.0,73,0.00,,,-99.99,FreeWX 2.04,2013-01-28 23:12:00,
2013-01-28 18:17:00,33.3,25.5,29.79,North,-999,0.0,0.0,73,0.00,,,-99.99,FreeWX 2.04,2013-01-28 23:17:00,
2013-01-28 18:22:00,33.3,25.5,29.82,North,-999,0.0,0.0,73,0.00,,,-99.99,FreeWX 2.04,2013-01-28 23:22:00,
2013-01-28 18:27:00,33.3,25.5,29.82,North,-999,0.0,4.9,73,0.00,,,-99.99,FreeWX 2.04,2013-01-28 23:27:00,
2013-01-28 18:32:00,33.1,25.3,29.82,North,-999,0.0,0.0,73,0.00,,,-99.99,FreeWX 2.04,2013-01-28 23:32:00,
2013-01-28 18:37:00,33.1,25.3,29.82,North,-999,0.0,0.0,73,0.00,,,-99.99,FreeWX 2.04,2013-01-28 23:37:00,
2013-01-28 18:42:00,33.1,25.3,29.82,North,-999,0.0,0.0,73,0.00,,,-99.99,FreeWX 2.04,2013-01-28 23:42:00,
2013-01-28 18:47:00,32.9,25.2,29.82,North,-999,0.0,0.0,73,0.00,,,-99.99,FreeWX 2.04,2013-01-28 23:47:00,
2013-01-28 18:52:00,32.7,25.0,29.82,North,-999,0.0,0.0,73,0.00,,,-99.99,FreeWX 2.04,2013-01-28 23:52:00,
2013-01-28 18:57:00,32.7,25.0,29.82,North,-999,0.0,0.0,73,0.00,,,-99.99,FreeWX 2.04,2013-01-28 23:57:00,
2013-01-28 19:02:00,32.7,25.0,29.82,North,-999,0.0,0.0,73,0.00,,,-99.99,FreeWX 2.04,2013-01-29 00:02:00,
2013-01-28 19:07:00,32.9,25.5,29.82,North,-999,0.0,0.0,74,0.00,,,-99.99,FreeWX 2.04,2013-01-29 00:07:00,
2013-01-28 19:12:00,32.7,25.3,29.82,North,-999,0.0,0.0,74,0.04,,,-99.99,FreeWX 2.04,2013-01-29 00:12:00,
2013-01-28 19:17:00,32.9,25.5,29.82,North,-999,0.0,4.0,74,0.04,,,-99.99,FreeWX 2.04,2013-01-29 00:17:00,
2013-01-28 19:22:00,32.9,25.5,29.85,North,-999,0.0,0.0,74,0.04,,,-99.99,FreeWX 2.04,2013-01-29 00:22:00,
2013-01-28 19:27:00,32.9,25.5,29.85,North,-999,0.0,0.0,74,0.04,,,-99.99,FreeWX 2.04,2013-01-29 00:27:00,
2013-01-28 19:32:00,33.1,25.7,29.85,NW,304,1.0,6.3,74,0.04,,,-99.99,FreeWX 2.04,2013-01-29 00:32:00,
2013-01-28 19:37:00,33.1,25.7,29.85,WNW,301,1.0,3.6,74,0.04,,,-99.99,FreeWX 2.04,2013-01-29 00:37:00,
2013-01-28 19:42:00,32.9,25.5,29.85,North,-999,0.0,0.0,74,0.04,,,-99.99,FreeWX 2.04,2013-01-29 00:42:00,
2013-01-28 19:47:00,32.9,25.9,29.85,North,-999,0.0,0.0,75,0.04,,,-99.99,FreeWX 2.04,2013-01-29 00:47:00,
2013-01-28 19:52:00,32.9,25.9,29.85,North,-999,0.0,0.0,75,0.04,,,-99.99,FreeWX 2.04,2013-01-29 00:52:00,
2013-01-28 19:57:00,32.7,25.7,29.85,North,-999,0.0,0.0,75,0.04,,,-99.99,FreeWX 2.04,2013-01-29 00:57:00,
2013-01-28 20:02:00,32.7,25.7,29.85,North,-999,0.0,0.0,75,0.04,,,-99.99,FreeWX 2.04,2013-01-29 01:02:00,
2013-01-28 20:07:00,32.7,25.7,29.88,North,-999,0.0,0.0,75,0.00,,,-99.99,FreeWX 2.04,2013-01-29 01:07:00,
2013-01-28 20:12:00,32.7,25.7,29.88,North,-999,0.0,0.0,75,0.00,,,-99.99,FreeWX 2.04,2013-01-29 01:12:00,
2013-01-28 20:17:00,32.7,25.7,29.88,North,-999,0.0,0.0,75,0.00,,,-99.99,FreeWX 2.04,2013-01-29 01:17:00,
2013-01-28 20:22:00,32.7,25.7,29.88,North,-999,0.0,0.0,75,0.00,,,-99.99,FreeWX 2.04,2013-01-29 01:22:00,
2013-01-28 20:27:00,32.7,25.7,29.88,North,-999,0.0,0.0,75,0.00,,,-99.99,FreeWX 2.04,2013-01-29 01:27:00,
2013-01-28 20:32:00,32.7,25.7,29.88,North,-999,0.0,0.0,75,0.00,,,-99.99,FreeWX 2.04,2013-01-29 01:32:00,
2013-01-28 20:37:00,32.7,25.7,29.88,North,-999,0.0,0.0,75,0.00,,,-99.99,FreeWX 2.04,2013-01-29 01:37:00,
2013-01-28 20:42:00,32.5,25.5,29.88,North,-999,0.0,0.0,75,0.00,,,-99.99,FreeWX 2.04,2013-01-29 01:42:00,
2013-01-28 20:47:00,32.5,25.5,29.88,North,-999,0.0,0.0,75,0.00,,,-99.99,FreeWX 2.04,2013-01-29 01:47:00,
2013-01-28 20:52:00,32.5,25.5,29.88,North,-999,0.0,0.0,75,0.00,,,-99.99,FreeWX 2.04,2013-01-29 01:52:00,
2013-01-28 20:57:00,32.5,25.5,29.88,North,-999,0.0,0.0,75,0.00,,,-99.99,FreeWX 2.04,2013-01-29 01:57:00,
2013-01-28 21:02:00,32.5,25.5,29.88,North,-999,0.0,0.0,75,0.00,,,-99.99,FreeWX 2.04,2013-01-29 02:02:00,
2013-01-28 21:07:00,32.5,25.5,29.88,North,-999,0.0,0.0,75,0.00,,,-99.99,FreeWX 2.04,2013-01-29 02:07:00,
2013-01-28 21:12:00,32.5,25.5,29.88,North,-999,0.0,0.0,75,0.00,,,-99.99,FreeWX 2.04,2013-01-29 02:12:00,
2013-01-28 21:17:00,32.5,25.9,29.88,North,-999,0.0,0.0,76,0.00,,,-99.99,FreeWX 2.04,2013-01-29 02:17:00,
2013-01-28 21:22:00,32.5,25.9,29.91,North,-999,0.0,0.0,76,0.00,,,-99.99,FreeWX 2.04,2013-01-29 02:22:00,
2013-01-28 21:27:00,32.4,25.7,29.91,North,-999,0.0,0.0,76,0.00,,,-99.99,FreeWX 2.04,2013-01-29 02:27:00,